"TOA5","AWS1","CR1000","7964","CR1000.Std.14","CPU:AWS1_114.CR1","64363","TBL110"
"TIMESTAMP","RECORD","Wind_spd_WVc(1)","Wind_spd_WVc(2)","Air_Temp_Avg","Humidity_Avg","SW_upper_Wm2_Avg","Rain_Tot","Press_Avg","Issui_Tot","Depth_cm","SR50A_Raw","Quality","Ground_Temp_Avg(1)","Ground_Temp_Avg(2)","SW_lower_Wm2_Avg","Albedo_Avg","SWC_per(1)","SWC_per(2)","Period(1)","Period(2)"
"TS","RN","","","","","","","","","","","","","","","","","","",""
"","","WVc","WVc","Avg","Avg","Avg","Tot","Avg","Tot","Smp","Smp","Smp","Avg","Avg","Avg","Avg","Smp","Smp","Smp","Smp"
"2017-06-10 00:00:00",291805,0.214,187.7,9.69,67.18,0,0,861.328,0,17.02,2.958,328,15.29,14.01,0.4131823,0,49.68,57.27,33.22,35.05
"2017-06-10 00:10:00",291806,0.552,186.4,9.51,69.2,0,0,861.1089,0,16.71,2.961,316,15.24,14.01,0.2577683,0,49.68,57.27,33.22,35.05
"2017-06-10 00:20:00",291807,0.391,186,9.75,67.96,0,0,861.0879,0,0.762,3.117,239,15.18,14.02,0.4548905,0,49.62,57.22,33.2,35.03
"2017-06-10 00:30:00",291808,0.373,186,9.74,68.25,0,0,860.9742,0,15.43,2.972,255,15.15,14.06,0.4169884,0,49.68,57.22,33.22,35.03
"2017-06-10 00:40:00",291809,0.301,187.7,9.92,67,0,0,860.9615,0,15.12,2.975,234,15.13,14.05,0.454895,0,49.68,57.22,33.22,35.03
"2017-06-10 00:50:00",291810,0.529,188.2,9.95,67.17,0,0,860.9825,0,14.1,2.985,360,15.06,14.04,0.4131962,0,49.68,57.22,33.22,35.03
"2017-06-10 01:00:00",291811,0.561,185.8,9.93,67.05,0,0,860.8351,0,-32.91,3.447,206,15.08,14.03,0.4321531,0,49.68,57.22,33.22,35.03
"2017-06-10 01:10:00",291812,0.567,184.7,9.93,67.63,0,0,860.7045,0,-22.77,3.348,218,14.98,14.03,0.1705862,0,49.68,57.22,33.22,35.03
"2017-06-10 01:20:00",291813,0.543,187.4,9.96,68.16,0,0,860.7509,0,13.39,2.992,261,14.99,14.03,0.04927995,0,49.62,57.22,33.2,35.03
"2017-06-10 01:30:00",291814,0.645,186.6,9.63,70.15,0,0,860.7361,0,14.8,2.98,238,14.96,14.03,0,0,49.68,57.22,33.22,35.03
"2017-06-10 01:40:00",291815,0.639,186.1,9.57,71.17,0,0,860.5676,0,15.64,2.972,215,14.88,14.02,0,0,49.62,57.22,33.2,35.03
"2017-06-10 01:50:00",291816,0.586,186.5,9.67,70.24,0,0,860.3339,0,-24.83,3.369,197,14.9,14.04,0.1213041,0,49.68,57.22,33.22,35.03
"2017-06-10 02:00:00",291817,0.651,187.2,9.62,70.7,0,0,860.3297,0,-26.66,3.387,258,14.8,14.05,0.04548921,0,49.68,57.22,33.22,35.03
"2017-06-10 02:10:00",291818,0.624,185.5,9.68,71.28,0,0,860.3297,0,14.09,2.987,472,14.82,14.06,0.06823398,0,49.68,57.16,33.22,35.02
"2017-06-10 02:20:00",291819,0.671,185.2,9.46,73.1,0,0,860.0411,0,14.76,2.982,258,14.75,14.06,0,0,49.68,57.22,33.22,35.03
"2017-06-10 02:30:00",291820,0.598,189.2,9.57,72.18,0,0,859.9021,0,13.89,2.988,296,14.72,14.06,0.2539774,0,49.68,57.16,33.22,35.02
"2017-06-10 02:40:00",291821,0.508,190.3,9.63,72.11,0,0,860.1169,0,14.17,2.986,242,14.68,14.07,0.06065126,0,49.62,57.22,33.2,35.03
"2017-06-10 02:50:00",291822,0.17,191.4,10.02,70.6,0,0,860.2813,0,14.16,2.987,226,14.62,14.06,0.4927852,0,49.62,57.16,33.2,35.02
"2017-06-10 03:00:00",291823,0.334,183.3,9.44,76.08,0,0,860.1611,0,14.09,2.987,226,14.62,14.06,0.05306998,0,49.68,57.16,33.22,35.02
"2017-06-10 03:10:00",291824,0.104,168.1,9.62,75.52,0,0,860.3297,0,-26.1,3.383,209,14.55,14.06,0.2198619,0,49.68,57.16,33.22,35.02
"2017-06-10 03:20:00",291825,0.212,143.9,9.69,74.64,0,0,860.494,0,13.78,2.99,330,14.56,14.03,0.2767248,0,49.68,57.16,33.22,35.02
"2017-06-10 03:30:00",291826,0.164,164.8,9.5,75.85,0,0,860.5508,0,17.36,2.953,315,14.54,14.03,0.2236577,0,49.68,57.16,33.22,35.02
"2017-06-10 03:40:00",291827,0.149,125.3,10.47,68.19,0,0,860.5823,0,16.03,2.962,249,14.46,14.02,1.228227,0,49.68,57.16,33.22,35.02
"2017-06-10 03:50:00",291828,0.257,111,10.41,69.78,0,0,860.4476,0,16.74,2.955,264,14.49,14.02,0.6254875,0,49.68,57.16,33.22,35.02
"2017-06-10 04:00:00",291829,0.239,105.1,10.88,67.24,0,0,860.3297,0,16.26,2.957,274,14.42,14.02,1.027311,0,49.68,57.16,33.22,35.02
"2017-06-10 04:10:00",291830,0.436,121.2,11.25,65.96,0,0,860.3297,0,14.48,2.974,290,14.37,14.01,0.9325299,0,49.68,57.16,33.22,35.02
"2017-06-10 04:20:00",291831,0.595,118.5,11.36,67.78,0,0,860.3297,0,-27.61,3.387,205,14.38,14.01,0.5231184,0,49.68,57.16,33.22,35.02
"2017-06-10 04:30:00",291832,0.567,118.8,11.14,70.45,0,0,860.3107,0,-27.6,3.387,197,14.32,14,0.1326692,0,49.68,57.16,33.22,35.02
"2017-06-10 04:40:00",291833,0.607,120.6,11.38,70.22,0.1375853,0,860.3402,0,-0.084,3.116,252,14.25,13.98,0.5496013,0.218,49.68,57.16,33.22,35.02
"2017-06-10 04:50:00",291834,0.562,108.6,11.58,69.98,3.050283,0,860.5571,0,-0.884,3.123,261,14.23,13.95,0.8982384,0.316,49.73,57.16,33.23,35.02
"2017-06-10 05:00:00",291835,0.49,94.2,11.81,69.61,4.822762,0,860.6877,0,-22.47,3.333,202,14.21,13.93,1.027033,0.208,49.73,57.16,33.23,35.02
"2017-06-10 05:10:00",291836,0.484,110.1,12.2,68.05,6.67769,0,860.8351,0,-23.39,3.339,201,14.14,13.93,1.481742,0.226,49.68,57.16,33.22,35.02
"2017-06-10 05:20:00",291837,0.648,109.1,12.17,68.38,16.86497,0,860.8351,0,17.61,2.94,246,14.07,13.91,2.410166,0.144,49.73,57.16,33.23,35.02
"2017-06-10 05:30:00",291838,0.401,80.8,12.06,69.08,27.67713,0,860.8646,0,17.26,2.943,236,14.09,13.9,3.96766,0.143,49.68,57.16,33.22,35.02
"2017-06-10 05:40:00",291839,0.428,84.8,12.07,69.47,41.26409,0,861.0499,0,17.18,2.944,253,14.1,13.86,5.976113,0.145,49.68,57.16,33.22,35.02
"2017-06-10 05:50:00",291840,0.296,89.5,12.07,68.82,46.54639,0,861.1005,0,15.84,2.958,254,14.02,13.85,6.824969,0.147,49.73,57.16,33.23,35.02
"2017-06-10 06:00:00",291841,0.462,108.7,12.04,69.52,68.62674,0,861.1174,0,16.34,2.952,249,14,13.84,10.46672,0.152,49.73,57.1,33.23,35.01
"2017-06-10 06:10:00",291842,0.65,105.9,12.13,68.97,73.14263,0,861.0416,0,16.36,2.952,258,14.02,13.84,10.73578,0.146,49.68,57.1,33.22,35.01
"2017-06-10 06:20:00",291843,0.709,106.2,12.14,69.59,93.21069,0,860.8793,0,17.8,2.937,304,14.02,13.84,14.41164,0.155,49.68,57.1,33.22,35.01
"2017-06-10 06:30:00",291844,0.498,45.34,12.36,69.95,110.5433,0,860.8563,0,18.48,2.929,372,14.02,13.84,17.034,0.154,49.73,57.1,33.23,35.01
"2017-06-10 06:40:00",291845,0.296,112.4,12.61,70.25,131.3188,0,860.871,0,-22.65,3.33,197,14,13.84,20.17175,0.153,49.73,57.16,33.23,35.02
"2017-06-10 06:50:00",291846,0.561,133.1,12.63,69.75,134.1643,0,860.8984,0,18.58,2.927,436,13.94,13.84,21.74062,0.159,49.68,57.16,33.22,35.02
"2017-06-10 07:00:00",291847,0.503,124.6,12.75,69.62,97.41609,0,860.8857,0,17.6,2.937,244,13.94,13.84,14.93838,0.153,49.73,57.1,33.23,35.01
"2017-06-10 07:10:00",291848,0.376,135.4,12.58,69.74,38.68974,0,860.8815,0,17.7,2.936,239,13.91,13.84,5.131043,0.132,49.68,57.1,33.22,35.01
"2017-06-10 07:20:00",291849,0.539,95.9,12.46,69.88,30.29072,0,861.0879,0,17.76,2.937,232,13.89,13.84,3.971443,0.13,49.68,57.1,33.22,35.01
"2017-06-10 07:30:00",291850,0.494,120.9,12.47,68.9,73.7479,0,861.1637,0,16.78,2.945,312,13.9,13.84,11.47853,0.153,49.68,57.1,33.22,35.01
"2017-06-10 07:40:00",291851,0.291,132.8,12.84,68.36,157.1329,0,861.163,0,17.27,2.938,282,13.9,13.83,25.03752,0.16,49.73,57.16,33.23,35.02
"2017-06-10 07:50:00",291852,0.62,126,13.21,66.44,230.0397,0,860.9536,0,16.83,2.94,324,13.89,13.84,35.5914,0.154,49.68,57.1,33.22,35.01
"2017-06-10 08:00:00",291853,0.702,129.7,13.7,64.08,268.9456,0,860.8826,0,15.57,2.951,325,13.88,13.84,40.71865,0.15,49.73,57.1,33.23,35.01
"2017-06-10 08:10:00",291854,0.598,108.4,14.15,61.02,455.9717,0,860.8643,0,12.87,2.972,266,13.89,13.82,81.66837,0.177,49.73,57.1,33.23,35.01
"2017-06-10 08:20:00",291855,0.634,119.1,15.21,58.29,621.6803,0,860.7776,0,18.45,2.914,223,13.89,13.79,105.5801,0.17,49.68,57.16,33.22,35.02
"2017-06-10 08:30:00",291856,0.458,68.99,15.61,57.47,481.899,0,860.754,0,17.78,2.922,219,13.85,13.73,79.14502,0.16,49.68,57.1,33.22,35.01
"2017-06-10 08:40:00",291857,0.576,68.58,15.04,56.49,420.3244,0,860.7455,0,13.43,2.964,250,13.82,13.72,67.48096,0.157,49.68,57.16,33.22,35.02
"2017-06-10 08:50:00",291858,0.487,104.1,15.25,55.71,422.1085,0,860.5714,0,-32.11,3.407,304,13.8,13.65,66.5043,0.152,49.68,57.1,33.22,35.01
"2017-06-10 09:00:00",291859,0.438,135.1,15.94,53.85,734.0193,0,860.373,0,12.28,2.971,262,13.8,13.64,125.0247,0.17,49.73,57.1,33.23,35.01
"2017-06-10 09:10:00",291860,0.744,131.5,16.32,51.74,793.0438,0,860.2403,0,13.84,2.955,250,13.8,13.62,134.4605,0.17,49.68,57.1,33.22,35.01
"2017-06-10 09:20:00",291861,0.553,126.5,16.6,50.46,829.397,0,860.0508,0,13.16,2.958,289,13.8,13.62,140.5669,0.169,49.68,57.04,33.22,34.99
"2017-06-10 09:30:00",291862,0.563,130.7,16.93,48.64,866.4821,0,859.8109,0,3.589,3.05,360,13.84,13.6,145.556,0.168,49.68,57.04,33.22,34.99
"2017-06-10 09:40:00",291863,0.629,91.1,17.34,46.49,883.6908,0,859.8951,0,15.46,2.934,253,13.86,13.58,149.1094,0.169,49.68,57.04,33.22,34.99
"2017-06-10 09:50:00",291864,0.393,126.5,17.95,45.4,901.819,0,859.8235,0,-25.17,3.323,225,13.81,13.56,151.8331,0.168,49.68,57.04,33.22,34.99
"2017-06-10 10:00:00",291865,0.749,52.5,17.87,44.07,906.6594,0,859.7245,0,-27.23,3.343,197,13.8,13.58,150.7497,0.166,49.62,57.04,33.2,34.99
"2017-06-10 10:10:00",291866,0.597,74.43,18.23,42.61,858.3648,0,859.4866,0,18.2,2.902,230,13.8,13.61,143.0785,0.163,49.68,57.1,33.22,35.01
"2017-06-10 10:20:00",291867,0.656,116.7,18.39,42.78,937.8002,0,859.3687,0,17.01,2.912,285,13.84,13.6,160.5916,0.171,49.62,57.1,33.2,35.01
"2017-06-10 10:30:00",291868,0.919,70.99,18.48,43.84,905.9679,0,859.1118,0,-1.932,3.098,216,13.94,13.53,153.1817,0.166,49.62,57.04,33.2,34.99
"2017-06-10 10:40:00",291869,0.778,6.542,18.37,43.64,948.9978,0,859.0002,0,16.92,2.915,388,13.88,13.45,159.7203,0.165,49.62,57.1,33.2,35.01
"2017-06-10 10:50:00",291870,0.366,45.12,18.62,44.88,865.873,0,859.0465,0,-23.46,3.305,201,13.93,13.45,144.5445,0.163,49.62,57.04,33.2,34.99
"2017-06-10 11:00:00",291871,0.755,43.93,17.9,45.25,437.8615,0,859.1034,0,-26.25,3.337,214,13.97,13.47,65.18446,0.148,49.62,57.04,33.2,34.99
"2017-06-10 11:10:00",291872,0.486,353,17.41,48.56,548.0409,0,859.0318,0,-18.65,3.263,258,14.02,13.53,87.19041,0.156,49.57,57.04,33.19,34.99
"2017-06-10 11:20:00",291873,0.656,26.76,18.32,46.19,696.5275,0,859.1265,0,318,0,0,14.1,13.5,113.2043,0.157,49.62,57.04,33.2,34.99
"2017-06-10 11:30:00",291874,0.597,33,17.21,47.69,271.1798,0,859.1666,0,18.11,2.91,233,14.18,13.51,39.62133,0.144,49.57,57.04,33.19,34.99
"2017-06-10 11:40:00",291875,0.567,32.69,16.62,49.1,185.8549,0,859.2255,0,-22.34,3.306,199,14.21,13.45,26.32077,0.141,49.57,57.04,33.19,34.99
"2017-06-10 11:50:00",291876,1.002,55.97,16.08,47.62,136.5898,0,859.4845,0,17.11,2.925,255,14.29,13.47,19.2519,0.14,49.57,57.04,33.19,34.99
"2017-06-10 12:00:00",291877,0.808,54.22,15.88,48.4,126.9836,0,859.7245,0,12.57,2.97,261,14.34,13.48,18.83898,0.143,49.57,57.04,33.19,34.99
"2017-06-10 12:10:00",291878,1.015,61.02,15.32,49.76,63.95539,0,859.773,0,15.61,2.944,307,14.43,13.45,8.622061,0.134,49.57,57.04,33.19,34.99
"2017-06-10 12:20:00",291879,0.867,47.65,15,50.01,51.62243,0,860.074,0,16.93,2.932,353,14.48,13.45,6.966596,0.133,49.57,57.04,33.19,34.99
"2017-06-10 12:30:00",291880,0.788,61.43,14.75,51.45,33.10923,0,860.2403,0,-3.461,3.132,224,14.52,13.43,4.223901,0.127,49.57,56.98,33.19,34.98
"2017-06-10 12:40:00",291881,0.844,54.66,14.42,52.82,18.70205,0,860.2403,0,-3.658,3.136,202,14.57,13.43,2.235098,0.118,49.57,56.98,33.19,34.98
"2017-06-10 12:50:00",291882,0.878,54.75,14.1,54.85,13.70098,0,860.3119,0,17.52,2.931,456,14.6,13.43,1.504017,0.109,49.51,56.98,33.18,34.98
"2017-06-10 13:00:00",291883,0.542,73.2,13.82,57.37,6.613269,0,860.5128,0,-31.9,3.415,246,14.62,13.44,1.034328,0.163,49.51,56.98,33.18,34.98
"2017-06-10 13:10:00",291884,0.226,37.17,13.54,59.57,14.79545,0,860.5115,0,19.31,2.916,237,14.7,13.46,2.06122,0.14,49.51,56.98,33.18,34.98
"2017-06-10 13:20:00",291885,0.206,83.8,13.39,59.44,21.24921,0,860.4861,0,19,2.919,255,14.73,13.47,3.095789,0.145,49.51,56.98,33.18,34.98
"2017-06-10 13:30:00",291886,0.141,76.44,13.34,59.63,28.7566,0,860.2709,0,19.18,2.918,227,14.78,13.49,4.206203,0.146,49.51,56.98,33.18,34.98
"2017-06-10 13:40:00",291887,0.224,127.2,13.23,62.48,39.16067,0,860.2798,0,19.42,2.917,220,14.79,13.49,5.847161,0.148,49.46,56.98,33.16,34.98
"2017-06-10 13:50:00",291888,0.283,109.2,13.07,61.92,28.10924,0,860.0875,0,19.44,2.917,206,14.8,13.5,3.819837,0.135,49.46,56.98,33.16,34.98
"2017-06-10 14:00:00",291889,0.227,71.89,13.09,61.72,51.00715,0,860.0148,0,19.47,2.916,204,14.82,13.5,7.469176,0.146,49.46,56.98,33.16,34.98
"2017-06-10 14:10:00",291890,0.235,58.18,13.09,63.42,20.62219,0,859.9179,0,-20.4,3.307,190,14.81,13.52,2.489728,0.118,49.46,56.98,33.16,34.98
"2017-06-10 14:20:00",291891,0.262,68.47,12.91,64.42,29.58718,0,859.668,0,19.41,2.918,232,14.78,13.53,4.096494,0.134,49.46,56.98,33.16,34.98
"2017-06-10 14:30:00",291892,0.371,59.29,12.95,64.05,35.42757,0,859.5498,0,12.2,2.988,304,14.76,13.57,5.100722,0.144,49.46,56.98,33.16,34.98
"2017-06-10 14:40:00",291893,0.621,47.65,12.95,64.43,13.86604,0,859.5755,0,-21.14,3.314,192,14.76,13.63,1.792453,0.13,49.46,56.98,33.16,34.98
"2017-06-10 14:50:00",291894,0.661,66.07,12.73,67.64,8.375434,0,859.6599,0,-20.99,3.314,193,14.75,13.63,1.883402,0.243,49.46,56.93,33.16,34.97
"2017-06-10 15:00:00",291895,0.471,96.1,12.3,72.75,9.585961,0,859.82,0,-20.68,3.315,190,14.74,13.65,2.618573,0.309,49.46,56.93,33.16,34.97
"2017-06-10 15:10:00",291896,0.322,96.9,11.63,78.93,11.05589,0,859.6514,0,-21.11,3.322,210,14.72,13.64,2.501097,0.238,49.41,56.98,33.15,34.98
"2017-06-10 15:20:00",291897,0.356,71.78,11.28,83.9,12.38039,0,859.4872,0,-20.78,3.32,223,14.72,13.65,2.747417,0.228,49.46,56.93,33.16,34.97
"2017-06-10 15:30:00",291898,0.215,61.4,11.28,83.8,10.56067,0,859.3987,0,-28.1,3.391,261,14.68,13.66,2.842156,0.289,49.46,56.93,33.16,34.97
"2017-06-10 15:40:00",291899,0.007,109.1,11.35,84.9,8.548367,0,859.5587,0,19.18,2.928,280,14.67,13.67,2.497307,0.296,49.46,56.93,33.16,34.97
"2017-06-10 15:50:00",291900,0.032,0.044,11.22,88.6,5.722493,0.5,859.5945,0,-19.98,3.314,202,14.7,13.67,2.038773,0.357,49.41,56.93,33.15,34.97
"2017-06-10 16:00:00",291901,0.015,210.6,10.74,100,9.43661,0,859.6957,0,7.538,3.046,308,14.71,13.67,1.913718,0.209,49.41,56.93,33.15,34.97
"2017-06-10 16:10:00",291902,0.044,143,10.67,100,13.29615,0.5,859.742,0,7.099,3.051,354,14.7,13.67,2.417727,0.191,49.41,56.93,33.15,34.97
"2017-06-10 16:20:00",291903,0.007,102.7,10.68,100,11.75548,0,859.5756,0,-22.2,3.337,220,14.66,13.67,2.171407,0.19,49.41,56.93,33.15,34.97
"2017-06-10 16:30:00",291904,0.021,132.1,10.68,100,11.15808,0.5,859.5777,0,19.06,2.933,249,14.64,13.67,2.004667,0.184,49.46,56.93,33.16,34.97
"2017-06-10 16:40:00",291905,0.166,191.3,10.68,100,11.91662,0.5,859.7631,0,18.81,2.935,222,14.59,13.67,2.027404,0.178,49.46,56.93,33.16,34.97
"2017-06-10 16:50:00",291906,0.171,228.1,10.7,100,9.519147,0,859.9379,0,19.09,2.932,240,14.61,13.67,1.587818,0.176,49.41,56.93,33.15,34.97
"2017-06-10 17:00:00",291907,0.048,164.2,10.81,100,9.97899,0.5,859.9105,0,19.19,2.931,223,14.62,13.67,1.618134,0.164,49.41,56.93,33.15,34.97
"2017-06-10 17:10:00",291908,0.091,35.84,10.81,100,6.398501,0,860.039,0,19.2,2.93,289,14.6,13.67,1.129283,0.178,49.41,56.93,33.15,34.97
"2017-06-10 17:20:00",291909,0.662,345.5,10.66,100,12.90312,2,860.2159,0,-22.96,3.346,172,14.51,13.67,1.765926,0.142,49.46,56.87,33.16,34.95
"2017-06-10 17:30:00",291910,1.529,305.6,9.98,100,15.70541,0.5,860.3297,0,-23.56,3.356,182,14.53,13.67,2.31162,0.149,49.46,56.87,33.16,34.95
"2017-06-10 17:40:00",291911,1.346,295.2,9.67,100,10.67465,0,860.4076,0,8.26,3.045,308,14.54,13.67,1.716662,0.161,49.62,56.87,33.2,34.95
"2017-06-10 17:50:00",291912,1.081,314.3,9.54,100,9.538798,0,860.5192,0,0.071,3.125,233,14.55,13.67,1.89477,0.207,49.73,56.87,33.23,34.95
"2017-06-10 18:00:00",291913,1.672,304.2,9.59,100,6.060497,0,860.7193,0,-1.785,3.143,228,14.45,13.67,1.663609,0.281,49.9,56.87,33.27,34.95
"2017-06-10 18:10:00",291914,1.275,329.4,9.49,100,5.156532,0,860.8689,0,318,0,0,14.42,13.67,1.580239,0.311,49.95,56.87,33.28,34.95
"2017-06-10 18:20:00",291915,0.904,304.4,9.48,100,5.863983,0,861.0163,0,-1.483,3.141,220,14.45,13.67,1.693925,0.312,50.06,56.93,33.31,34.97
"2017-06-10 18:30:00",291916,1.166,323.3,9.63,98.3,8.347922,0,861.0373,0,-25.62,3.376,190,14.47,13.67,2.535203,0.326,50.11,56.93,33.33,34.97
"2017-06-10 18:40:00",291917,0.903,354.8,9.73,96.9,3.132436,0,861.1215,0,-2.115,3.146,216,14.37,13.67,1.712873,0.563,50.17,56.93,33.34,34.97
"2017-06-10 18:50:00",291918,0.922,345,9.87,93.7,3.678745,0,861.092,0,-37.74,3.494,272,14.36,13.67,2.106985,0.638,50.22,56.93,33.35,34.97
"2017-06-10 19:00:00",291919,0.537,71.13,9.84,97,1.395251,0,861.1152,0,-25.08,3.372,196,14.36,13.67,1.409709,1.01,50.28,56.93,33.37,34.97
"2017-06-10 19:10:00",291920,0.523,154.4,9.43,100,0.4991497,0,861.2669,0,-2.556,3.152,217,14.38,13.67,0.9549745,1.057,50.28,56.98,33.37,34.98
"2017-06-10 19:20:00",291921,0.628,143.4,9.28,100,0,0,861.2964,0,0.135,3.126,275,14.3,13.68,0.7124533,0,50.28,56.98,33.37,34.98
"2017-06-10 19:30:00",291922,0.66,112.5,9.23,100,0,0,861.2901,0,-1.698,3.145,235,14.28,13.68,0.8223521,0,50.33,57.04,33.38,34.99
"2017-06-10 19:40:00",291923,0.698,196.3,9.26,100,0,0,861.3554,0,-2.919,3.156,206,14.29,13.68,0.9133097,0,50.33,57.04,33.38,34.99
"2017-06-10 19:50:00",291924,0.479,13.33,9.33,100,0,0,861.5281,0,-23.21,3.355,195,14.32,13.69,0.9512332,0,50.39,57.1,33.39,35.01
"2017-06-10 20:00:00",291925,0.875,32.69,9.42,97.1,0,0,861.6039,0,-27.56,3.398,205,14.29,13.69,1.28855,0,50.39,57.1,33.39,35.01
"2017-06-10 20:10:00",291926,0.455,69.3,9.39,96.8,0,0,861.5934,0,-3.003,3.157,205,14.22,13.7,1.246886,0,50.39,57.16,33.39,35.02
"2017-06-10 20:20:00",291927,0.332,112.1,9.11,100,0,0,861.4312,0,-3.8,3.167,195,14.22,13.7,0.8148367,0,50.39,57.16,33.39,35.02
"2017-06-10 20:30:00",291928,0.755,97.1,8.82,99.2,0,0,861.4186,0,-3.169,3.161,200,14.24,13.72,1.212807,0,50.44,57.16,33.41,35.02
"2017-06-10 20:40:00",291929,0.684,73.78,8.83,95.1,0,0,861.3807,0,-3.404,3.164,194,14.27,13.77,1.428871,0,50.44,57.22,33.41,35.03
"2017-06-10 20:50:00",291930,0.287,33.5,8.68,96,0,0,861.3407,0,-3.722,3.168,202,14.16,13.81,1.46307,0,50.44,57.22,33.41,35.03
"2017-06-10 21:00:00",291931,0.313,162.1,8.3,99.2,0,0,861.3554,0,17.23,2.965,300,14.18,13.81,0.9893364,0,50.44,57.27,33.41,35.05
"2017-06-10 21:10:00",291932,0.321,173.7,7.786,100,0,0,861.3954,0,16.68,2.972,301,14.24,13.78,0.8150069,0,50.44,57.22,33.41,35.03
"2017-06-10 21:20:00",291933,0.321,170.8,7.504,100,0,0,861.5239,0,-2.841,3.166,210,14.21,13.76,0.8908379,0,50.44,57.27,33.41,35.05
"2017-06-10 21:30:00",291934,0.309,162,7.171,100,0,0,861.5239,0,-2.441,3.164,213,14.11,13.76,0.8453541,0,50.44,57.27,33.41,35.05
"2017-06-10 21:40:00",291935,0.409,175.8,6.862,100,0,0,861.4749,0,-2.243,3.164,222,14.16,13.75,0.8756827,0,50.44,57.33,33.41,35.06
"2017-06-10 21:50:00",291936,0.423,176.8,6.555,100,0,0,861.491,0,12.17,3.023,298,14.17,13.76,0.8756831,0,50.44,57.33,33.41,35.06
"2017-06-10 22:00:00",291937,0.489,180,6.235,100,0,0,861.3922,0,-22.52,3.368,197,14.05,13.73,0.8605198,0,50.44,57.33,33.41,35.06
"2017-06-10 22:10:00",291938,0.544,180,5.914,100,0,0,861.4053,0,-20.6,3.35,171,14.11,13.75,0.9022191,0,50.44,57.39,33.41,35.07
"2017-06-10 22:20:00",291939,0.55,183.3,5.76,100,0,0,861.4202,0,17.69,2.973,460,14.03,13.76,0.9363366,0,50.44,57.39,33.41,35.07
"2017-06-10 22:30:00",291940,0.486,187.2,5.562,100,0,0,861.371,0,-30.49,3.45,231,13.98,13.76,1.095552,0,50.5,57.39,33.42,35.07
"2017-06-10 22:40:00",291941,0.59,186.8,5.454,100,0,0,861.375,0,-4.075,3.19,195,14.02,13.75,1.122087,0,50.44,57.39,33.41,35.07
"2017-06-10 22:50:00",291942,0.42,190.9,5.241,100,0,0,861.3903,0,-23.21,3.38,178,13.97,13.68,1.125878,0,50.44,57.39,33.41,35.07
"2017-06-10 23:00:00",291943,0.573,179.1,5.15,100,0,0,861.3356,0,17.22,2.98,290,13.93,13.67,1.046271,0,50.44,57.45,33.41,35.09
"2017-06-10 23:10:00",291944,0.395,182.1,5.132,100,0,0,861.2534,0,17.42,2.978,272,13.9,13.68,1.353329,0,50.5,57.39,33.42,35.07
"2017-06-10 23:20:00",291945,0.584,186.6,4.994,100,0,0,861.1733,0,17.72,2.976,256,13.84,13.69,1.194113,0,50.44,57.45,33.41,35.09
"2017-06-10 23:30:00",291946,0.598,191.4,4.824,100,0,0,861.0195,0,17.96,2.975,250,13.84,13.68,1.171368,0,50.44,57.45,33.41,35.09
"2017-06-10 23:40:00",291947,0.57,184.7,4.603,100,0,0,860.9479,0,18.05,2.975,271,13.78,13.67,1.182745,0,50.44,57.51,33.41,35.1
"2017-06-10 23:50:00",291948,0.602,181.3,4.505,100,0,0,860.9162,0,18.19,2.974,281,13.77,13.68,1.239639,0,50.44,57.45,33.41,35.09
